Flag for United Kingdom Weather past 2 weeks in Cheltenham, England, United Kingdom

Now
52 °F

Rain showers. Scattered clouds.


Feels Like: 45 °F
Forecast: 42 / 53 °F
Wind: 26 mph from Northwest

Location: Staverton Private

Current Time: Mar 29, 2015 at 3:20:18 PM

Latest Report: Mar 29, 2015 at 2:50 PM


Visibility: N/A

Pressure: 29.42 "Hg

Humidity: 82%

Dew point: 46 °F

Location of CheltenhamLocation

Historic Weather in Cheltenham — Graph

°F

Cheltenham temperature yesterday

Maximum temperature yesterday: 57 °F (at 9:50 AM)
Minimum temperature yesterday: 54 °F (at 8:50 AM)
Average temperature yesterday: 55 °F

Past Weeks' High & Low Weather Summary

 TemperatureHumidityPressure
High57 °F (Mar 20, 3:20 PM)100% (Mar 16, 9:50 AM)30.57 "Hg (Mar 16, 9:50 AM)
Low34 °F (Mar 18, 6:50 AM)44% (Mar 25, 4:20 PM)29.33 "Hg (Mar 29, 12:20 PM)
Average47 °F76%30.13 "Hg
* Reported Mar 14 12:20 PM — Mar 29 1:50 PM, Cheltenham, Weather by CustomWeather, © 2015

Note: Actual official high and low records may vary slightly from our data, if they occured in-between our weather recording intervals... More about our weather records

Advertising

Cheltenham weather history for previous 24 hours

 ConditionsComfort  
Time TempWeatherWind HumidityBarometerVisibility
1:50 PM
Sun, Mar 29
55 °FPartly sunny.20 mph82%29.36 "HgN/A
1:20 PM55 °FLight rain. Partly sunny.18 mph82%29.36 "Hg6 mi
12:50 PM54 °FLight rain. Partly sunny.20 mph94%29.36 "Hg6 mi
12:20 PM55 °FPartly sunny.20 mph88%29.33 "HgN/A
11:50 AM55 °FLight rain. Broken clouds.18 mph82%29.36 "HgN/A
11:20 AM54 °FLight rain. Broken clouds.21 mph88%29.36 "HgN/A
10:50 AM54 °FLight rain. Broken clouds.17 mph88%29.39 "HgN/A
10:20 AM54 °FPartly sunny.18 mph88%29.39 "HgN/A
9:50 AM54 °FLight rain. Partly sunny.17 mph88%29.42 "HgN/A
9:20 AM52 °FLight rain. Partly sunny.14 mph94%29.45 "HgN/A
8:50 AM52 °FLight rain. Partly sunny.16 mph94%29.45 "HgN/A
8:20 AM50 °FLight rain. Partly sunny.16 mph94%29.47 "HgN/A
7:50 AM48 °FLight rain. Passing clouds.14 mph94%29.50 "HgN/A
7:20 AM48 °FLight rain. Passing clouds.12 mph94%29.50 "HgN/A
5:50 PM
Sat, Mar 28
54 °FBroken clouds.13 mph88%29.71 "HgN/A
5:20 PM54 °FPartly sunny.12 mph82%29.71 "HgN/A
4:50 PM54 °FPartly sunny.14 mph82%29.71 "HgN/A
4:20 PM55 °FPartly sunny.13 mph77%29.71 "HgN/A
3:50 PM55 °FPartly sunny.13 mph77%29.71 "HgN/A
3:20 PM55 °FPartly sunny.14 mph82%29.71 "HgN/A
Weather by CustomWeather, © 2015

See weather overviewHow to use our weather pages